Location: Cerroniocc
(13.7547°S, 72.0222°W)
Time: 19:55:55
(UTC+00:00)

Cosmos 1777 Rocket - Pass Details

Date: 05 July 2020
Orbit: 757 x 776 km, 74.0° (Epoch: 10 August)

Event Time Altitude Azimuth Distance (km) Brightness Sun altitude
Rises 23:20:15 0° 351° (N) 3,236 7.7 -11.4°
Reaches altitude 10° 23:22:37 10° 353° (N) 2,314 6.9 -12.0°
Maximum altitude 23:27:52 75° 78° (ENE) 804 4.0 -13.2°
Drops below altitude 10° 23:33:09 10° 162° (SSE) 2,327 6.1 -14.4°
Enters shadow 23:34:09 - 163° (SSE) 2,712 6.5 -14.6°
